[Iaude] MPEC J81: 2024 FT15 [a=1.58,e=0.25,i=4.6,H=23.2]

mpec at cfa.harvard.edu mpec at cfa.harvard.edu
Sun May 5 12:53:15 EDT 2024


M.P.E.C. 2024-J81                                   Issued 2024 May 5, 16:51 UT

     The Minor Planet Electronic Circulars contain information on unusual
         minor planets, routine data on comets and natural satellites,
         and occasional editorial announcements.  They are published
    on behalf of Division F of the International Astronomical Union by the
          Minor Planet Center, Smithsonian Astrophysical Observatory,
                          Cambridge, MA 02138, U.S.A.
			  
             Prepared using the Tamkin Foundation Computer Network

                              MPC at CFA.HARVARD.EDU
            URL https://www.minorplanetcenter.net/    ISSN 1523-6714

                                   2024 FT15                                    


Observations:
     K24F15T* C2024 03 19.44960912 27 33.154-22 06 12.03         21.47wXEJ081F51
     K24F15T  C2024 03 19.46036212 27 32.672-22 06 22.64         21.42wXEJ081F51
     K24F15T  C2024 03 19.47111212 27 32.223-22 06 32.90         21.60wXEJ081F51
     K24F15T 1C2024 03 19.53441212 27 29.485-22 07 32.63         21.61GVEJ081T12
     K24F15T 1C2024 03 19.53693212 27 29.380-22 07 34.95         22.09GVEJ081T12
     K24F15T KC2024 03 19.53747112 27 29.385-22 07 35.87         22.09GVEJ081F51
     K24F15T  C2024 05 02.30544712 10 09.957-27 22 54.96         21.32wXEJ081F51
     K24F15T  C2024 05 02.31650112 10 10.191-27 22 54.36         21.92wXEJ081F51
     K24F15T  C2024 05 02.32753912 10 10.424-27 22 53.66         21.92wXEJ081F51
     K24F15T  C2024 05 02.33859412 10 10.660-27 22 52.71         21.66wXEJ081F51
     K24F15T KC2024 05 03.22530 12 10 45.93 -27 21 49.8          21.1 RVEJ081291
     K24F15T KC2024 05 03.24666 12 10 46.51 -27 21 47.7          20.9 RVEJ081291
     K24F15T KC2024 05 03.28391 12 10 47.60 -27 21 43.5          21.2 RVEJ081291
     K24F15T  C2024 05 03.32466212 10 50.498-27 21 37.38         21.79GVEJ081F51
     K24F15T  C2024 05 03.32548112 10 50.518-27 21 37.48         22.06GVEJ081F51
     K24F15T  C2024 05 04.46388312 11 39.841-27 19 48.39         21.44GVEJ081F51
     K24F15T  C2024 05 04.46470212 11 39.868-27 19 48.28         21.56GVEJ081F51

Observer details:
291 LPL/Spacewatch II.  Observer T. H. Bressi.  1.8-m f/2.7 reflector + CCD.
F51 Pan-STARRS 1, Haleakala.  Observers J. Herman, T. Lowe, P. Minguez, A.
    Schultz, I. Smith.  Measurers K. Chambers, T. de Boer, J. Fairlamb, H.
    Gao, M. Huber, C.-C. Lin, E. Magnier, Y. Ramanjooloo, R. Wainscoat, R.
    Weryk.  1.8-m Ritchey-Chretien + CCD.
T12 University of Hawaii 88-inch telescope, Maunakea.  Observer J. Fairlamb.
    Measurers R. Weryk, J. Fairlamb, Y. Ramanjooloo, R. Wainscoat.  2.24-m
    f/10.1 reflector + CCD.

Orbital elements:
2024 FT15                                                Earth MOID = 0.1985 AU
Epoch 2024 Mar. 31.0 TT = JDT 2460400.5                 Bell                    
M 334.80555              (2000.0)            P               Q                  
n   0.49492082     Peri.  295.47012     -0.60194778     +0.79538912             
a   1.5828712      Node   297.33699     -0.70103140     -0.56883168             
e   0.2453149      Incl.    4.57246     -0.38237919     -0.20925262             
P   1.99           H   23.20          G   0.15           U   6                  
Residuals in seconds of arc
240319 F51  0.1+  0.1+    240502 F51  0.0   0.0     240503 291  0.5+  0.2-
240319 F51  0.2-  0.1-    240502 F51  0.0   0.0     240503 F51  0.0   0.0
240319 F51  0.0   0.0     240502 F51  0.0   0.0     240503 F51  0.0   0.1-
240319 T12  0.0   0.0     240502 F51  0.0   0.1+    240504 F51  0.0   0.0
240319 T12  0.0   0.0     240503 291  0.0   0.0     240504 F51  0.0   0.0
240319 F51  0.0   0.0     240503 291  0.0   0.1-

Ephemeris:
2024 FT15                a,e,i = 1.58, 0.25, 5                   q = 1.1946
Date    TT    R. A. (2000) Decl.     Delta      r    Elong.  Phase     V
2024 04 05    12 16 05.7 -25 44 14   0.2601  1.2455   158.1    17.5    21.7
...
2024 04 20    12 07 50.5 -27 14 44   0.2382  1.2183   150.9    23.6    21.6
...
2024 04 28    12 08 08.5 -27 25 03   0.2335  1.2077   146.2    27.7    21.7
...
2024 05 04    12 11 20.2 -27 20 10   0.2328  1.2018   142.7    30.6    21.7
2024 05 05    12 12 08.1 -27 18 32   0.2328  1.2010   142.2    31.0    21.8
2024 05 06    12 13 00.8 -27 16 43   0.2330  1.2002   141.6    31.5    21.8
...
2024 05 12    12 19 56.7 -27 02 38   0.2349  1.1966   138.6    33.9    21.9
...
2024 05 20    12 33 29.7 -26 39 11   0.2406  1.1946   135.2    36.7    22.0
...
2024 06 04    13 09 56.1 -25 50 12   0.2604  1.1996   130.3    40.1    22.3

M. P. C. Staff               (C) Copyright 2024 MPC           M.P.E.C. 2024-J81





More information about the Iaude mailing list